Content
SEND FEEDBACK

Daily
Averages
Monthly
Summary
Malaysia

ALOR SETAR, MALAYSIA


Home > Asia > Malaysia
Elevation: 13 feet     Latitude: 06 11N     Longitude: 100 24E

WEATHER
 
SELECT A DAY
Number of Records: 90,666;   Date Range: 6/24/00 - 8/31/14
 
SHARE

PRINT THIS DATA

[ ← Previous Day ]
WEATHER ALMANAC - DECEMBER 25, 2013
[ Next Day → ]
[ °C ]   °F
Weather ElementAverageHighLow
Temperature81.1 °F87.8 °F (1:00 pm)77 °F (1:00 am)
Dewpoint73.9 °F77 °F (4:00 pm)71.6 °F (4:00 am)
Humidity78.9 %89 % (1:00 am)66 % (1:00 pm)
Barometer29.87 in29.92 in (10:00 am)29.80 in (4:00 pm)
Wind Speed4.7 mph8.1 mph (2:00 pm)
Weather ElementAverage
Visibility6.2 mi
Wind DirectionENE (71.3 °)

Weather ElementTotal
Precipitation---
Cooling Degree Days17.4 (Base 65)
Growing Degree Days32.4 (Base 50)
Averaged from 23 records on December 25, 2013
WEATHER CONDITIONS BREAKOUT
WIND DIRECTION BREAKOUT
WEATHER BY HOUR - DECEMBER 25, 2013
[ °C ]   °F
Local TimeTemperatureDewpointHumidityBarometerVisibilityWind DirectionWind SpeedGust SpeedPrecipitationEventsConditions
1:00 AM77.0 °F73.4 °F89 %29.89 in6.2 miNNE (20°)2.3 mphMostly Cloudy
2:00 AM78.8 °F73.4 °F83 %29.89 in6.2 miENE (60°)5.8 mphMostly Cloudy
3:00 AM77.0 °F73.4 °F89 %29.86 in6.2 miNE (50°)3.5 mphMostly Cloudy
4:00 AM77.0 °F71.6 °F83 %29.83 in6.2 miENE (60°)3.5 mphMostly Cloudy
5:00 AM77.0 °F71.6 °F83 %29.83 in6.2 miENE (60°)3.5 mphMostly Cloudy
6:00 AM77.0 °F71.6 °F83 %29.83 in6.2 miENE (70°)3.5 mphMostly Cloudy
7:00 AM77.0 °F71.6 °F83 %29.86 in6.2 miNE (40°)2.3 mphMostly Cloudy
8:00 AM77.0 °F71.6 °F83 %29.86 in6.2 miENE (70°)3.5 mphMostly Cloudy
9:00 AM78.8 °F73.4 °F83 %29.89 in6.2 miENE (60°)3.5 mphMostly Cloudy
10:00 AM80.6 °F73.4 °F79 %29.92 in6.2 miENE (60°)4.6 mphMostly Cloudy
11:00 AM84.2 °F75.2 °F74 %29.92 in6.2 miNE (50°)6.9 mphMostly Cloudy
12:00 PM84.2 °F75.2 °F74 %29.92 in6.2 miENE (60°)6.9 mphMostly Cloudy
1:00 PM87.8 °F75.2 °F66 %29.89 in6.2 miENE (60°)6.9 mphMostly Cloudy
2:00 PM87.8 °F75.2 °F66 %29.86 in6.2 miENE (70°)8.1 mphMostly Cloudy
3:00 PM87.8 °F75.2 °F66 %29.83 in6.2 miNE (50°)6.9 mphMostly Cloudy
4:00 PM87.8 °F77.0 °F70 %29.80 in6.2 miNorth (10°)6.9 mphMostly Cloudy
5:00 PM86.0 °F77.0 °F74 %29.80 in6.2 miNorth (360°)4.6 mphMostly Cloudy
6:00 PM84.2 °F75.2 °F74 %29.83 in6.2 miNorth (10°)6.9 mphMostly Cloudy
7:00 PM82.4 °F75.2 °F79 %29.83 in6.2 miNorth (10°)5.8 mphMostly Cloudy
8:00 PM80.6 °F75.2 °F84 %29.86 in6.2 miNNE (30°)4.6 mphMostly Cloudy
9:00 PM78.8 °F73.4 °F83 %29.89 in6.2 miNorth (10°)3.5 mphMostly Cloudy
10:00 PM78.8 °F73.4 °F83 %29.92 in6.2 miNorth (360°)2.3 mphMostly Cloudy
11:00 PM78.8 °F73.4 °F83 %29.92 in6.2 miNorth (10°)2.3 mphMostly Cloudy
Hourly data recorded from WMKA, located miles away from Alor Setar, Malaysia







STORIES FROM OUR PARTNERS